GW2294 Weather Reports


Display with metric or nautical units.
time (UTC)temp
F
wind
direction
speed
MPH
gust
MPH
rain 1hr
in
rain 24hr
in
rain mn
in
humidity
%
barometer
mb
20260507154702 60 22 0.0 2.0 0.00 0.06 0.06 67 1013.6
20260507154202 60 279 1.0 9.0 0.00 0.06 0.06 63 1013.6
20260507153701 60 279 1.0 9.0 0.00 0.06 0.06 60 1013.5
20260507152657 60 254 1.0 8.0 0.00 0.06 0.06 62 1013.5
20260507152200 61 271 1.0 5.0 0.00 0.06 0.06 60 1013.5
20260507151905 61 279 0.0 6.0 0.00 0.06 0.06 60 1013.5
20260507151754 61 273 1.0 6.0 0.00 0.06 0.06 60 1013.5
20260507150657 61 272 1.0 5.0 0.00 0.06 0.06 60 1013.5
20260507150155 61 271 1.0 5.0 0.00 0.06 0.06 61 1013.5
20260507145653 61 271 1.0 6.0 0.00 0.06 0.06 60 1013.5
20260507145153 61 281 1.0 6.0 0.00 0.06 0.06 60 1013.5
20260507144655 61 275 1.0 5.0 0.00 0.06 0.06 60 1013.6
20260507144154 60 275 1.0 8.0 0.00 0.06 0.06 63 1013.6
20260507143653 60 273 1.0 8.0 0.00 0.06 0.06 61 1013.7
20260507143155 60 273 0.0 1.0 0.00 0.06 0.06 64 1013.6
20260507142651 60 273 0.0 1.0 0.00 0.06 0.06 63 1013.6
20260507142151 60 273 0.0 0.0 0.00 0.06 0.06 62 1013.6
20260507141651 61 273 1.0 6.0 0.00 0.06 0.06 60 1013.6
20260507141145 61 273 1.0 6.0 0.00 0.06 0.06 60 1013.6
20260507141125 61 234 1.0 5.0 0.00 0.06 0.06 59 1013.6
20260507140133 62 238 2.0 5.0 0.00 0.06 0.06 59 1013.6
20260507140119 62 104 1.0 5.0 0.00 0.06 0.06 58 1013.7
20260507135127 61 279 1.0 4.0 0.00 0.06 0.06 62 1013.7
20260507134625 61 284 0.0 4.0 0.00 0.06 0.06 62 1013.8
20260507134125 60 310 0.0 4.0 0.00 0.06 0.06 63 1013.8
20260507133625 60 43 0.0 5.0 0.00 0.06 0.06 63 1013.8
20260507133124 61 42 0.0 5.0 0.00 0.06 0.06 63 1013.7
20260507132624 62 196 1.0 6.0 0.00 0.06 0.06 59 1013.8
20260507132125 62 275 2.0 6.0 0.00 0.06 0.06 63 1013.8
20260507131625 61 281 2.0 6.0 0.00 0.06 0.06 61 1013.8
20260507131125 60 286 0.0 5.0 0.00 0.06 0.06 65 1013.9
20260507130621 59 293 0.0 5.0 0.00 0.06 0.06 66 1013.9
20260507130121 59 276 1.0 7.0 0.00 0.06 0.06 65 1014.0
20260507125619 60 276 1.0 7.0 0.00 0.06 0.06 64 1013.9
20260507125607 60 313 0.0 1.0 0.00 0.06 0.06 64 1013.9
20260507124620 62 315 0.0 1.0 0.00 0.06 0.06 63 1014.0
20260507124120 61 32 0.0 5.0 0.00 0.06 0.06 64 1013.9
20260507123619 61 34 2.0 7.0 0.00 0.06 0.06 66 1014.0
20260507123120 60 45 1.0 7.0 0.00 0.06 0.06 68 1014.0
20260507122622 60 57 0.0 0.0 0.00 0.07 0.06 69 1014.0
20260507122119 59 45 0.0 0.0 0.00 0.07 0.06 70 1014.0
20260507121621 58 44 1.0 6.0 0.00 0.08 0.06 71 1014.0
20260507121121 58 44 1.0 6.0 0.00 0.09 0.06 69 1014.1
20260507120621 58 34 1.0 6.0 0.00 0.10 0.06 72 1014.1
20260507120120 58 49 1.0 4.0 0.00 0.11 0.06 70 1014.1
20260507115620 58 69 0.0 4.0 0.00 0.13 0.06 72 1014.2
20260507115121 58 32 0.0 0.0 0.00 0.13 0.06 73 1014.1
20260507114621 57 35 0.0 0.0 0.00 0.13 0.06 75 1014.1
20260507114120 58 36 1.0 6.0 0.00 0.14 0.06 73 1014.1
20260507113621 58 36 2.0 10.0 0.00 0.15 0.06 71 1014.1
20260507113119 59 40 2.0 10.0 0.00 0.16 0.06 71 1014.1
20260507112619 60 9 0.0 5.0 0.00 0.17 0.06 72 1014.1
20260507112121 59 18 0.0 5.0 0.00 0.17 0.06 71 1014.1
20260507111619 57 263 1.0 6.0 0.00 0.19 0.06 71 1014.1
20260507111121 57 263 1.0 6.0 0.00 0.20 0.06 70 1014.1
20260507110926 57 227 0.0 3.0 0.00 0.22 0.06 72 1014.1
20260507110845 57 221 0.0 4.0 0.00 0.23 0.06 72 1014.1
20260507105620 57 216 0.0 4.0 0.00 0.25 0.06 72 1014.1
20260507105119 58 320 1.0 5.0 0.00 0.27 0.06 71 1014.1
20260507104618 58 45 3.0 8.0 0.00 0.28 0.06 71 1014.1
20260507104119 58 52 4.0 9.0 0.00 0.28 0.06 78 1014.1
20260507103616 57 50 2.0 9.0 0.00 0.30 0.06 76 1014.2
20260507103115 57 40 1.0 7.0 0.00 0.30 0.06 76 1014.2
20260507102614 56 40 0.0 5.0 0.00 0.31 0.06 78 1014.2
20260507102111 56 40 1.0 5.0 0.00 0.31 0.06 78 1014.2
20260507101612 56 286 1.0 9.0 0.00 0.31 0.06 77 1014.2
20260507101547 57 286 0.0 9.0 0.00 0.32 0.06 73 1014.2
20260507100611 57 277 0.0 2.0 0.00 0.33 0.06 70 1014.2
20260507100552 57 273 0.0 4.0 0.00 0.34 0.06 72 1014.2
20260507095615 56 273 0.0 4.0 0.00 0.35 0.06 74 1014.2
20260507095607 57 271 0.0 4.0 0.00 0.35 0.06 74 1014.2
20260507094607 56 273 0.0 4.0 0.00 0.35 0.06 77 1014.2
20260507094106 56 273 0.0 4.0 0.00 0.35 0.06 77 1014.2
20260507093604 56 271 0.0 0.0 0.00 0.35 0.06 78 1014.3
20260507093103 56 269 0.0 0.0 0.00 0.35 0.06 76 1014.2
20260507092823 55 268 0.0 1.0 0.00 0.35 0.06 75 1014.2
20260507092721 55 268 0.0 5.0 0.00 0.35 0.06 77 1014.2
20260507091557 55 268 1.0 5.0 0.00 0.35 0.06 79 1014.2
20260507091055 56 268 1.0 5.0 0.00 0.35 0.06 78 1014.2
20260507090556 56 268 0.0 5.0 0.00 0.35 0.06 78 1014.1
20260507090049 57 266 0.0 0.0 0.00 0.35 0.06 78 1014.1
20260507085544 56 266 0.0 1.0 0.00 0.35 0.06 77 1014.1
20260507085357 55 266 0.0 4.0 0.00 0.35 0.06 80 1014.1
20260507085307 55 266 0.0 4.0 0.00 0.35 0.06 80 1014.1
20260507084026 55 215 0.0 0.0 0.00 0.35 0.06 82 1014.1
20260507083520 55 215 0.0 0.0 0.00 0.35 0.06 80 1014.1
20260507083014 55 213 0.0 0.0 0.00 0.35 0.06 82 1014.0
20260507082950 54 212 0.0 0.0 0.00 0.35 0.06 83 1014.0
20260507082003 53 210 0.0 0.0 0.00 0.35 0.06 85 1014.0
20260507081456 52 207 0.0 0.0 0.00 0.35 0.06 85 1014.1
20260507080951 52 207 0.0 0.0 0.00 0.35 0.06 86 1014.1
20260507080700 52 207 0.0 0.0 0.00 0.35 0.06 88 1014.0
20260507080158 51 207 0.0 0.0 0.00 0.35 0.06 87 1014.0
20260507075432 51 207 0.0 0.0 0.00 0.35 0.06 90 1014.0
20260507074926 51 207 0.0 0.0 0.00 0.35 0.06 89 1014.0
20260507074420 51 207 0.0 0.0 0.00 0.35 0.06 90 1014.0
20260507073913 51 207 0.0 0.0 0.00 0.35 0.06 89 1014.0
20260507073408 51 207 0.0 0.0 0.00 0.35 0.06 90 1014.0
20260507072902 51 207 0.0 0.0 0.00 0.35 0.06 91 1013.9
20260507072356 50 206 0.0 0.0 0.00 0.35 0.06 91 1014.0
20260507072013 50 211 0.0 0.0 0.00 0.35 0.06 93 1013.8
20260507071917 50 207 0.0 2.0 0.00 0.35 0.06 92 1013.8
20260507071906 50 206 0.0 2.0 0.00 0.35 0.06 92 1013.9
20260507071100 49 212 0.0 0.0 0.00 0.35 0.06 92 1013.8
20260507065826 49 212 0.0 0.0 0.00 0.35 0.06 93 1013.8
20260507065811 49 212 0.0 0.0 0.00 0.35 0.06 93 1013.8
20260507064814 49 212 0.0 0.0 0.00 0.35 0.06 93 1013.8
20260507064308 49 212 0.0 0.0 0.00 0.35 0.06 93 1013.8
20260507064026 49 212 0.0 0.0 0.00 0.35 0.06 93 1013.7
20260507063256 49 212 0.0 0.0 0.00 0.35 0.06 93 1013.7
20260507062750 49 202 0.0 0.0 0.00 0.35 0.06 93 1013.7
20260507062244 49 202 0.0 0.0 0.00 0.35 0.06 93 1013.7
20260507061738 49 202 0.0 0.0 0.00 0.35 0.06 94 1013.7
20260507061231 49 202 0.0 0.0 0.00 0.35 0.06 94 1013.6
20260507060726 49 202 0.0 0.0 0.00 0.35 0.06 94 1013.6
20260507060709 49 202 0.0 0.0 0.00 0.35 0.06 94 1013.5
20260507055714 49 202 0.0 0.0 0.00 0.35 0.06 94 1013.5
20260507055208 49 202 0.0 0.0 0.00 0.35 0.06 94 1013.5
20260507054702 49 202 0.0 0.0 0.00 0.35 0.06 95 1013.4
20260507054156 48 202 0.0 0.0 0.00 0.35 0.06 95 1013.4
20260507053650 48 202 0.0 0.0 0.00 0.35 0.06 95 1013.4
20260507053144 48 202 0.0 0.0 0.01 0.35 0.06 95 1013.3
20260507052639 48 202 0.0 0.0 0.01 0.35 0.06 95 1013.2
20260507052132 48 202 0.0 0.0 0.01 0.35 0.06 95 1013.1
20260507051626 48 202 0.0 0.0 0.01 0.35 0.06 94 1013.0
20260507051120 48 202 0.0 0.0 0.01 0.35 0.06 94 1013.0
20260507050835 48 202 0.0 0.0 0.01 0.35 0.06 94 1013.0
20260507050108 48 202 0.0 0.0 0.01 0.35 0.06 94 1012.9
20260507045602 48 202 0.0 0.0 0.01 0.35 0.06 94 1012.9
20260507045056 48 202 0.0 0.0 0.01 0.35 0.06 94 1012.8
20260507044550 48 202 0.0 0.0 0.01 0.35 0.06 94 1012.8
20260507044538 48 202 0.0 0.0 0.01 0.35 0.06 94 1012.7
20260507043548 48 202 0.0 0.0 0.01 0.35 0.06 94 1012.6
20260507043047 48 202 0.0 0.0 0.00 0.35 0.05 94 1012.6
20260507042545 48 202 0.0 0.0 0.00 0.35 0.05 94 1012.5
20260507042041 48 202 0.0 0.0 0.00 0.35 0.05 94 1012.5
20260507041539 48 202 0.0 0.0 0.00 0.35 0.05 94 1012.4
20260507041037 48 202 0.0 0.0 0.00 0.35 0.05 94 1012.4
20260507040536 48 202 0.0 0.0 0.00 0.35 0.05 94 1012.3
20260507040033 48 202 0.0 0.0 0.00 0.35 0.05 94 1012.3
20260507035531 48 202 0.0 0.0 0.00 0.35 0.05 94 1012.4
20260507035032 48 202 0.0 0.0 0.00 0.35 0.05 94 1012.4
20260507034532 48 202 0.0 0.0 0.00 0.35 0.05 94 1012.4
20260507034029 48 202 0.0 0.0 0.00 0.35 0.05 94 1012.4
20260507033527 48 202 0.0 0.0 0.00 0.35 0.05 94 1012.3
20260507033025 48 202 0.0 0.0 0.00 0.35 0.05 94 1012.3
20260507032522 48 202 0.0 0.0 0.00 0.35 0.05 94 1012.3
20260507032021 48 202 0.0 0.0 0.00 0.35 0.05 94 1012.2
20260507031520 48 202 0.0 0.0 0.00 0.35 0.05 94 1012.2
20260507031508 48 202 0.0 0.0 0.00 0.35 0.05 93 1012.2
20260507030514 48 202 0.0 0.0 0.00 0.35 0.05 93 1012.1
20260507030015 48 202 0.0 0.0 0.00 0.35 0.05 94 1012.1
20260507025515 48 202 0.0 0.0 0.01 0.35 0.05 94 1012.2
20260507025017 48 202 0.0 0.0 0.01 0.35 0.05 94 1012.2
20260507024514 48 202 0.0 0.0 0.01 0.35 0.05 94 1012.1
20260507024503 48 202 0.0 0.0 0.01 0.35 0.05 94 1012.1
20260507023521 48 202 0.0 0.0 0.01 0.35 0.05 94 1012.2
20260507023515 48 202 0.0 0.0 0.01 0.35 0.05 94 1012.2
20260507022516 48 202 0.0 0.0 0.01 0.35 0.05 93 1012.0
20260507022015 48 202 0.0 0.0 0.01 0.35 0.05 93 1012.1
20260507021839 48 202 0.0 0.0 0.02 0.35 0.05 93 1012.1
20260507021804 48 202 0.0 0.0 0.02 0.35 0.05 93 1012.0
20260507020514 48 202 0.0 0.0 0.02 0.35 0.05 93 1012.0
20260507020508 48 202 0.0 0.0 0.02 0.35 0.05 93 1012.0
20260507015516 48 202 0.0 0.0 0.02 0.34 0.04 93 1012.0
20260507015015 48 202 0.0 0.0 0.02 0.34 0.04 93 1011.8
20260507014515 48 202 0.0 0.0 0.02 0.34 0.04 93 1011.8
20260507014014 48 202 0.0 0.0 0.02 0.34 0.04 93 1011.7
20260507014001 48 202 0.0 0.0 0.02 0.34 0.04 93 1011.7
20260507013015 48 202 0.0 0.0 0.02 0.34 0.04 93 1011.8
20260507012515 48 202 0.0 0.0 0.03 0.34 0.04 93 1011.6
20260507012504 48 202 0.0 0.0 0.03 0.34 0.04 93 1011.6
20260507011516 48 202 0.0 0.0 0.02 0.33 0.03 93 1011.6
20260507011240 48 202 0.0 0.0 0.02 0.33 0.03 93 1011.6
20260507010519 48 202 0.0 0.0 0.02 0.32 0.02 92 1011.6
20260507010512 48 202 0.0 0.0 0.02 0.33 0.03 93 1011.6
20260507010405 48 202 0.0 0.0 0.02 0.32 0.02 93 1011.6
20260507005008 48 202 0.0 0.0 0.02 0.32 0.02 93 1011.5
20260507004501 48 202 0.0 0.0 0.01 0.31 0.02 93 1011.5
20260507003956 48 202 0.0 0.0 0.01 0.31 0.02 93 1011.5
20260507003449 48 202 0.0 0.0 0.01 0.31 0.02 93 1011.5
20260507002943 48 202 0.0 0.0 0.00 0.31 0.01 93 1011.5
20260507002437 48 202 0.0 0.0 0.00 0.31 0.01 93 1011.5
20260507002413 48 202 0.0 0.0 0.00 0.31 0.01 93 1011.4
20260507001425 48 202 0.0 0.0 0.00 0.31 0.01 93 1011.4
20260507000919 48 202 0.0 0.0 0.00 0.31 0.01 93 1011.3
20260507000858 48 202 0.0 0.0 0.00 0.31 0.01 93 1011.3
20260506235908 48 202 0.0 0.0 0.00 0.31 0.01 93 1011.3
20260506235408 48 202 0.0 0.0 0.01 0.31 0.01 93 1011.3
20260506235247 48 202 0.0 0.0 0.01 0.31 0.01 92 1011.3
20260506235152 48 202 0.0 0.0 0.01 0.31 0.01 93 1011.3
20260506234830 48 202 0.0 0.0 0.01 0.31 0.01 92 1011.3
20260506234137 48 202 0.0 0.0 0.01 0.31 0.01 92 1011.2
20260506232907 48 202 0.0 0.0 0.01 0.31 0.01 92 1011.3
20260506232407 48 202 0.0 0.0 0.01 0.31 0.01 92 1011.3
20260506231907 48 202 0.0 0.0 0.01 0.31 0.01 91 1011.3
20260506231406 48 202 0.0 0.0 0.01 0.31 0.01 91 1011.3
20260506230905 48 202 0.0 0.0 0.01 0.31 0.01 91 1011.3
20260506230405 48 202 0.0 0.0 0.01 0.31 0.01 91 1011.2
20260506225905 48 202 0.0 0.0 0.01 0.31 0.01 91 1011.3
20260506225402 48 202 0.0 0.0 0.00 0.30 0.00 91 1011.3
20260506224902 48 202 0.0 2.0 0.00 0.30 0.00 91 1011.2
20260506224404 48 202 0.0 2.0 0.00 0.30 0.00 90 1011.3
20260506223903 48 202 0.0 0.0 0.00 0.30 0.00 91 1011.3
20260506223402 49 202 0.0 0.0 0.00 0.30 0.00 90 1011.3
20260506222856 49 202 0.0 0.0 0.00 0.30 0.00 90 1011.1
20260506222348 49 202 0.0 0.0 0.00 0.30 0.00 90 1011.1
20260506221843 49 202 0.0 0.0 0.00 0.30 0.00 90 1011.1
20260506221337 49 202 0.0 0.0 0.00 0.30 0.00 90 1011.2
20260506220831 49 202 0.0 0.0 0.00 0.30 0.00 90 1011.1
20260506220325 49 202 0.0 2.0 0.00 0.30 0.00 89 1011.1
20260506215819 49 202 0.0 2.0 0.00 0.30 0.30 90 1011.0
20260506215313 49 202 0.0 0.0 0.00 0.30 0.30 90 1011.0
20260506214807 49 202 0.0 0.0 0.00 0.30 0.30 89 1011.0
20260506214301 49 202 0.0 0.0 0.00 0.30 0.30 89 1011.1
20260506213755 49 202 0.0 1.0 0.00 0.30 0.30 90 1011.0
20260506213248 49 202 0.0 2.0 0.00 0.30 0.30 90 1011.1
20260506212743 49 202 0.0 2.0 0.00 0.30 0.30 90 1011.1
20260506212244 49 202 0.0 0.0 0.00 0.30 0.30 90 1011.1
20260506212005 49 202 0.0 4.0 0.00 0.30 0.30 89 1011.0
20260506211240 49 202 0.0 4.0 0.00 0.30 0.30 89 1011.0
20260506211011 49 202 0.0 1.0 0.00 0.30 0.30 89 1010.8
20260506210238 49 202 0.0 0.0 0.00 0.30 0.30 89 1010.9
20260506205738 49 202 0.0 5.0 0.00 0.30 0.30 89 1010.8
20260506205238 49 202 0.0 5.0 0.00 0.30 0.30 89 1010.7
20260506204736 49 153 0.0 4.0 0.00 0.30 0.30 90 1010.7
20260506204236 49 153 0.0 4.0 0.00 0.30 0.30 91 1010.7
20260506204003 49 153 1.0 6.0 0.00 0.30 0.30 91 1010.6
20260506203238 49 153 1.0 6.0 0.00 0.30 0.30 91 1010.6
20260506202737 49 246 0.0 1.0 0.00 0.30 0.30 91 1010.7
20260506202234 49 246 0.0 0.0 0.00 0.30 0.30 91 1010.6
20260506202226 49 246 0.0 0.0 0.00 0.30 0.30 91 1010.6
20260506201231 49 246 0.0 0.0 0.00 0.30 0.30 91 1010.6
20260506200730 50 246 0.0 4.0 0.00 0.30 0.30 91 1010.6
20260506200231 50 246 0.0 4.0 0.00 0.30 0.30 92 1010.6
20260506195729 50 246 0.0 0.0 0.00 0.30 0.30 92 1010.4
20260506195230 50 246 0.0 0.0 0.00 0.30 0.30 92 1010.2
20260506194725 49 246 0.0 0.0 0.00 0.30 0.30 91 1010.3
20260506194218 49 246 0.0 0.0 0.00 0.30 0.30 91 1010.2
20260506193712 50 246 0.0 0.0 0.00 0.30 0.30 90 1010.1
20260506193647 50 246 0.0 0.0 0.00 0.30 0.30 90 1010.0
20260506192700 50 246 0.0 0.0 0.00 0.30 0.30 90 1010.0
20260506192154 50 246 0.0 0.0 0.00 0.30 0.30 90 1010.0
20260506191648 50 246 0.0 0.0 0.00 0.30 0.30 90 1009.9
20260506191143 50 246 0.0 0.0 0.00 0.30 0.30 90 1009.9
20260506191123 50 246 0.0 0.0 0.00 0.30 0.30 89 1009.9
20260506190443 50 250 0.0 0.0 0.00 0.30 0.30 89 1009.8
20260506190354 51 250 0.0 0.0 0.00 0.30 0.30 88 1009.7
20260506185119 51 250 0.0 0.0 0.00 0.30 0.30 88 1009.7
20260506185101 51 250 0.0 0.0 0.00 0.30 0.30 87 1009.7
20260506184106 51 250 0.0 0.0 0.00 0.30 0.30 87 1009.7
20260506183604 52 250 0.0 0.0 0.00 0.30 0.30 86 1009.6
20260506183557 52 250 0.0 0.0 0.00 0.30 0.30 86 1009.5
20260506183457 52 250 0.0 0.0 0.00 0.30 0.30 85 1009.5
20260506182808 52 250 0.0 0.0 0.00 0.30 0.30 85 1009.4
20260506181536 53 250 0.0 0.0 0.00 0.30 0.30 86 1009.4
20260506181030 53 250 0.0 0.0 0.00 0.30 0.30 85 1009.4
20260506180524 53 250 0.0 0.0 0.00 0.30 0.30 84 1009.4
20260506180018 53 250 0.0 0.0 0.00 0.30 0.30 83 1009.4
20260506175512 53 250 0.0 0.0 0.00 0.30 0.30 83 1009.3
20260506175006 53 250 0.0 0.0 0.00 0.30 0.30 83 1009.3
20260506174804 53 250 0.0 0.0 0.00 0.30 0.30 83 1009.3
20260506174717 53 250 0.0 0.0 0.00 0.30 0.30 82 1009.3
20260506173448 53 250 0.0 0.0 0.00 0.30 0.30 83 1009.1
20260506172942 53 250 0.0 4.0 0.00 0.30 0.30 82 1009.1
20260506172934 53 250 0.0 4.0 0.00 0.30 0.30 82 1009.0
20260506171930 53 229 0.0 0.0 0.00 0.30 0.30 81 1008.9
20260506171424 53 229 0.0 0.0 0.00 0.30 0.30 81 1009.0
20260506170918 53 229 0.0 0.0 0.00 0.30 0.30 82 1008.9
20260506170412 53 229 0.0 0.0 0.00 0.30 0.30 83 1008.9
20260506165906 53 229 0.0 0.0 0.00 0.30 0.30 83 1008.8
20260506165400 53 229 0.0 0.0 0.00 0.30 0.30 82 1008.8
20260506164854 53 229 0.0 0.0 0.00 0.30 0.30 81 1008.8
20260506164826 53 229 0.0 0.0 0.00 0.30 0.30 82 1008.7
20260506163337 53 229 0.0 0.0 0.00 0.30 0.30 80 1008.8
20260506162830 53 229 0.0 0.0 0.00 0.30 0.30 82 1008.8
20260506162324 54 229 0.0 0.0 0.00 0.30 0.30 82 1008.7
20260506161819 54 229 0.0 0.0 0.00 0.30 0.30 82 1008.6
20260506161754 54 229 0.0 0.0 0.00 0.30 0.30 83 1008.8
20260506160806 54 229 0.0 0.0 0.00 0.30 0.30 81 1008.7
20260506160300 54 229 0.0 0.0 0.00 0.30 0.30 79 1008.6
20260506155754 53 229 0.0 0.0 0.00 0.30 0.30 79 1008.6
20260506155248 53 229 0.0 1.0 0.00 0.30 0.30 80 1008.6